Precipitable_Water
0.60 0.60 0.60 0.59 0.59 0.59 0.59 0.61 0.62 0.61 0.61 0.61 0.61 0.59 0.59 0.57 0.56 0.57 0.56 0.55 0.52 0.49 0.47 0.45 0.46 0.46 0.45 0.44 0.44 0.42 0.41 0.29 0.23 0.19 0.18 0.14 0.16 0.19 0.30 0.29 0.49 0.62 0.78 0.58 0.56 0.52 0.45 0.59 0.74 0.94 1.01 1.07 1.09 1.11 1.33 1.42 1.52 1.50 1.18 1.08 0.98 1.09 1.12 1.33 1.26 1.35 1.45 1.32 1.43 1.50 1.54 1.42 1.29 1.42 1.36 1.39 1.16 1.07 1.07 1.01 1.08 1.19 1.13 1.19 1.23 1.36 1.42 1.47
0.59 0.59 0.59 0.59 0.58 0.58 0.57 0.58 0.59 0.61 0.61 0.61 0.61 0.60 0.60 0.59 0.58 0.57 0.57 0.56 0.54 0.51 0.48 0.47 0.46 0.47 0.47 0.44 0.44 0.44 0.38 0.28 0.17 0.20 0.15 0.20 0.21 0.21 0.25 0.32 0.51 0.63 0.77 0.46 0.39 0.40 0.43 0.62 0.80 0.98 0.97 0.95 1.16 1.08 1.31 1.20 1.48 1.23 1.15 1.11 0.97 1.19 1.25 1.50 1.47 1.51 1.39 1.34 1.42 1.51 1.57 1.48 1.38 1.42 1.36 1.09 1.01 0.98 0.93 0.96 1.02 1.03 1.10 1.22 1.29 1.35 1.39 1.44
0.58 0.58 0.58 0.58 0.58 0.58 0.58 0.58 0.57 0.58 0.59 0.61 0.61 0.61 0.60 0.60 0.59 0.58 0.57 0.56 0.55 0.52 0.51 0.49 0.48 0.48 0.46 0.46 0.44 0.45 0.36 0.20 0.20 0.12 0.12 0.28 0.23 0.24 0.27 0.33 0.51 0.63 0.66 0.40 0.39 0.37 0.58 0.80 0.90 0.94 0.94 0.96 1.07 0.97 1.17 1.15 1.30 1.28 1.16 1.00 1.11 1.35 1.42 1.52 1.58 1.47 1.55 1.47 1.40 1.45 1.51 1.49 1.50 1.47 1.47 1.08 0.97 0.96 0.82 0.82 0.92 0.92 0.97 1.07 1.20 1.30 1.36 1.41
0.57 0.56 0.56 0.56 0.56 0.56 0.57 0.57 0.57 0.57 0.57 0.58 0.60 0.61 0.61 0.60 0.60 0.58 0.57 0.55 0.53 0.52 0.52 0.52 0.51 0.50 0.48 0.45 0.47 0.44 0.31 0.21 0.13 0.25 0.41 0.50 0.27 0.25 0.28 0.36 0.53 0.55 0.64 0.42 0.34 0.39 0.74 0.83 0.79 0.89 0.91 0.94 0.99 1.07 1.00 1.17 1.10 1.28 1.18 1.03 1.16 1.39 1.36 1.52 1.58 1.57 1.59 1.56 1.44 1.47 1.52 1.46 1.54 1.52 1.39 1.13 0.97 0.90 0.88 0.97 0.90 0.89 0.98 1.04 1.16 1.26 1.34 1.35
0.56 0.55 0.55 0.55 0.54 0.54 0.54 0.54 0.55 0.55 0.55 0.55 0.57 0.59 0.60 0.60 0.60 0.59 0.57 0.55 0.52 0.51 0.52 0.54 0.54 0.52 0.49 0.47 0.46 0.43 0.20 0.17 0.17 0.42 0.57 0.51 0.31 0.25 0.28 0.36 0.50 0.55 0.49 0.39 0.33 0.38 0.62 0.69 0.76 0.91 0.94 0.85 0.95 0.99 1.00 1.15 1.27 1.28 1.14 1.25 1.30 1.41 1.35 1.54 1.59 1.64 1.58 1.64 1.52 1.53 1.39 1.41 1.65 1.50 1.36 1.19 0.89 0.77 0.85 0.99 1.07 1.03 1.06 1.07 1.13 1.24 1.31 1.30
0.56 0.56 0.55 0.55 0.54 0.54 0.53 0.52 0.53 0.53 0.53 0.53 0.53 0.55 0.58 0.60 0.60 0.59 0.58 0.55 0.52 0.52 0.53 0.55 0.56 0.53 0.51 0.48 0.44 0.38 0.16 0.12 0.45 0.42 0.64 0.52 0.34 0.25 0.28 0.34 0.46 0.51 0.46 0.34 0.28 0.34 0.47 0.65 0.80 0.78 0.80 0.82 0.84 0.85 0.99 1.10 1.31 1.01 1.21 1.27 1.34 1.41 1.35 1.55 1.61 1.63 1.60 1.53 1.52 1.47 1.52 1.59 1.50 1.39 1.44 1.33 1.12 1.06 1.16 1.13 1.14 1.09 1.11 1.14 1.23 1.25 1.24 1.26
0.57 0.56 0.55 0.55 0.54 0.53 0.52 0.51 0.51 0.51 0.51 0.51 0.51 0.52 0.54 0.57 0.59 0.59 0.58 0.55 0.52 0.52 0.53 0.55 0.56 0.56 0.51 0.47 0.42 0.27 0.12 0.29 0.49 0.52 0.51 0.49 0.35 0.26 0.32 0.37 0.50 0.43 0.40 0.29 0.31 0.42 0.56 0.65 0.76 0.76 0.76 0.78 0.85 0.86 0.95 0.98 1.19 1.13 1.06 1.24 1.27 1.43 1.41 1.60 1.58 1.73 1.70 1.50 1.49 1.63 1.67 1.48 1.44 1.31 1.48 1.34 1.33 1.29 1.27 1.29 1.24 1.19 1.17 1.17 1.15 1.20 1.20 1.24
0.58 0.57 0.56 0.55 0.55 0.54 0.52 0.51 0.50 0.50 0.50 0.50 0.50 0.50 0.50 0.53 0.56 0.58 0.58 0.55 0.53 0.53 0.54 0.55 0.56 0.55 0.53 0.39 0.24 0.15 0.14 0.28 0.50 0.63 0.55 0.55 0.40 0.28 0.36 0.43 0.41 0.37 0.34 0.27 0.32 0.44 0.55 0.55 0.64 0.79 0.75 0.72 0.76 0.81 0.91 0.93 1.08 1.03 1.05 1.22 1.31 1.42 1.52 1.61 1.63 1.66 1.70 1.72 1.77 1.71 1.49 1.47 1.48 1.42 1.47 1.35 1.36 1.30 1.27 1.31 1.29 1.21 1.15 1.15 1.14 1.17 1.21 1.24
0.59 0.58 0.57 0.57 0.56 0.55 0.54 0.52 0.51 0.50 0.50 0.50 0.49 0.48 0.49 0.50 0.53 0.55 0.55 0.54 0.53 0.55 0.55 0.56 0.55 0.55 0.55 0.38 0.21 0.12 0.14 0.26 0.41 0.62 0.70 0.59 0.43 0.36 0.33 0.29 0.37 0.32 0.33 0.29 0.33 0.47 0.55 0.53 0.74 0.84 0.71 0.75 0.85 0.76 0.83 0.95 0.93 1.11 1.12 1.24 1.33 1.35 1.43 1.52 1.62 1.60 1.66 1.66 1.75 1.60 1.50 1.57 1.56 1.59 1.42 1.46 1.40 1.34 1.31 1.27 1.25 1.20 1.10 1.10 1.13 1.18 1.20 1.21
0.59 0.59 0.59 0.58 0.58 0.57 0.56 0.55 0.53 0.52 0.50 0.50 0.48 0.48 0.48 0.49 0.51 0.52 0.52 0.52 0.53 0.55 0.56 0.57 0.57 0.56 0.47 0.31 0.23 0.11 0.16 0.50 0.62 0.69 0.70 0.58 0.52 0.47 0.37 0.30 0.29 0.31 0.30 0.29 0.28 0.41 0.50 0.69 0.83 0.94 0.93 0.78 0.78 0.67 0.76 0.91 0.97 1.20 1.21 1.24 1.25 1.36 1.41 1.48 1.52 1.60 1.70 1.72 1.70 1.58 1.52 1.51 1.62 1.51 1.24 1.53 1.45 1.42 1.31 1.22 1.21 1.12 1.05 1.10 1.15 1.20 1.22 1.21
0.59 0.59 0.59 0.59 0.59 0.58 0.58 0.57 0.56 0.54 0.52 0.50 0.49 0.47 0.47 0.47 0.49 0.50 0.50 0.50 0.51 0.53 0.56 0.58 0.59 0.52 0.33 0.34 0.16 0.11 0.42 0.62 0.69 0.72 0.70 0.60 0.53 0.45 0.35 0.31 0.27 0.26 0.30 0.31 0.29 0.40 0.67 0.89 0.99 0.97 0.87 0.72 0.70 0.66 0.75 0.89 1.07 1.10 1.16 1.23 1.26 1.36 1.44 1.44 1.54 1.60 1.67 1.60 1.68 1.66 1.54 1.65 1.67 1.55 1.34 1.47 1.50 1.44 1.27 1.20 1.14 1.06 1.04 1.10 1.15 1.18 1.24 1.24
0.59 0.59 0.59 0.59 0.59 0.59 0.58 0.58 0.57 0.56 0.54 0.51 0.49 0.47 0.46 0.47 0.48 0.48 0.48 0.48 0.50 0.51 0.54 0.59 0.59 0.52 0.43 0.29 0.19 0.16 0.52 0.64 0.66 0.67 0.65 0.57 0.47 0.46 0.42 0.37 0.28 0.26 0.30 0.32 0.36 0.47 0.69 0.90 0.97 0.87 0.63 0.82 0.56 0.66 0.91 1.02 0.99 1.05 1.05 0.92 1.15 1.27 1.22 1.41 1.41 1.53 1.63 1.54 1.71 1.65 1.48 1.39 1.47 1.32 1.54 1.57 1.57 1.45 1.30 1.17 1.09 1.04 1.03 1.09 1.16 1.20 1.22 1.22
0.59 0.59 0.59 0.59 0.59 0.59 0.59 0.58 0.58 0.57 0.55 0.52 0.49 0.47 0.46 0.46 0.47 0.47 0.47 0.47 0.50 0.51 0.54 0.58 0.56 0.53 0.37 0.17 0.16 0.27 0.52 0.68 0.66 0.59 0.58 0.56 0.49 0.48 0.43 0.37 0.32 0.32 0.34 0.39 0.42 0.53 0.75 0.86 0.90 0.78 0.84 0.75 0.61 0.48 0.86 1.03 1.04 1.05 1.04 0.98 1.01 1.07 1.08 1.35 1.54 1.60 1.52 1.62 1.71 1.58 1.03 1.21 1.35 1.49 1.62 1.60 1.57 1.45 1.28 1.16 1.07 1.04 1.02 1.10 1.15 1.17 1.19 1.22
0.59 0.59 0.59 0.59 0.59 0.59 0.59 0.59 0.58 0.57 0.54 0.52 0.49 0.47 0.46 0.46 0.47 0.46 0.47 0.47 0.50 0.51 0.53 0.53 0.53 0.46 0.30 0.16 0.19 0.39 0.49 0.52 0.59 0.58 0.52 0.53 0.43 0.41 0.42 0.35 0.34 0.37 0.40 0.44 0.58 0.75 0.75 0.86 0.88 0.84 0.85 0.68 0.56 0.77 0.82 0.92 1.07 0.84 1.00 1.04 0.88 0.82 0.87 1.35 1.44 1.56 1.41 1.67 1.63 1.59 1.04 1.15 1.38 1.51 1.60 1.58 1.58 1.43 1.17 1.13 1.05 1.00 1.00 1.07 1.14 1.15 1.14 1.16
0.60 0.60 0.59 0.59 0.60 0.60 0.59 0.59 0.58 0.57 0.55 0.52 0.49 0.47 0.46 0.45 0.46 0.47 0.48 0.44 0.51 0.50 0.50 0.52 0.51 0.40 0.23 0.21 0.32 0.51 0.68 0.66 0.53 0.52 0.54 0.42 0.31 0.31 0.33 0.31 0.30 0.38 0.41 0.52 0.69 0.84 0.92 0.93 0.84 0.68 0.60 0.64 0.63 0.54 0.70 0.76 0.94 0.98 0.81 0.73 0.88 0.82 0.93 1.26 1.51 1.49 1.30 1.56 1.66 1.46 1.14 1.17 1.34 1.49 1.60 1.59 1.57 1.48 1.21 1.10 1.04 0.98 0.97 1.04 1.11 1.13 1.11 1.12
0.60 0.60 0.60 0.59 0.60 0.60 0.60 0.60 0.60 0.58 0.55 0.52 0.49 0.46 0.46 0.47 0.47 0.49 0.51 0.49 0.49 0.51 0.49 0.36 0.44 0.40 0.26 0.20 0.32 0.58 0.59 0.50 0.50 0.54 0.53 0.44 0.30 0.22 0.27 0.24 0.28 0.37 0.44 0.58 0.75 0.86 0.89 0.82 0.63 0.60 0.57 0.53 0.49 0.55 0.61 0.66 0.80 0.93 0.81 0.74 0.76 0.89 0.94 1.07 1.34 1.50 1.54 1.49 1.55 1.40 1.13 1.27 1.30 1.55 1.61 1.62 1.54 1.46 1.29 1.10 1.03 0.98 0.96 1.01 1.08 1.11 1.10 1.10
0.60 0.61 0.60 0.60 0.61 0.61 0.62 0.61 0.60 0.58 0.55 0.52 0.49 0.47 0.48 0.50 0.52 0.54 0.60 0.60 0.54 0.53 0.43 0.30 0.37 0.45 0.14 0.33 0.57 0.48 0.46 0.57 0.65 0.54 0.48 0.43 0.26 0.24 0.24 0.20 0.25 0.34 0.48 0.63 0.75 0.77 0.70 0.57 0.57 0.54 0.54 0.46 0.47 0.53 0.50 0.55 0.63 0.76 0.87 0.80 0.90 0.84 0.95 0.91 1.29 1.43 1.51 1.46 1.29 1.42 1.24 1.23 1.35 1.51 1.54 1.57 1.55 1.45 1.31 1.12 1.03 0.98 0.97 0.99 1.05 1.09 1.06 1.06
0.60 0.61 0.60 0.61 0.61 0.62 0.62 0.61 0.59 0.57 0.54 0.50 0.46 0.45 0.50 0.58 0.62 0.59 0.56 0.59 0.61 0.50 0.49 0.50 0.44 0.30 0.18 0.31 0.37 0.45 0.56 0.55 0.59 0.53 0.45 0.34 0.31 0.30 0.23 0.20 0.31 0.40 0.55 0.60 0.66 0.56 0.54 0.46 0.47 0.41 0.46 0.44 0.43 0.40 0.38 0.40 0.63 0.71 0.78 0.80 0.85 0.96 1.00 0.96 0.98 1.26 1.39 1.44 1.32 1.31 1.27 1.27 1.35 1.47 1.51 1.55 1.56 1.46 1.33 1.17 1.03 0.97 0.97 0.98 1.01 1.04 1.04 1.04
0.61 0.61 0.61 0.62 0.62 0.62 0.62 0.60 0.57 0.55 0.52 0.47 0.49 0.58 0.63 0.68 0.68 0.63 0.53 0.54 0.39 0.29 0.17 0.17 0.20 0.13 0.13 0.27 0.45 0.51 0.51 0.64 0.64 0.56 0.39 0.34 0.33 0.35 0.32 0.38 0.42 0.51 0.51 0.45 0.43 0.46 0.46 0.41 0.42 0.39 0.37 0.38 0.39 0.37 0.37 0.57 0.78 0.81 0.83 0.80 0.85 0.79 0.88 0.95 1.13 1.36 1.35 1.25 1.27 1.26 1.16 1.26 1.33 1.41 1.49 1.60 1.59 1.46 1.40 1.33 1.11 0.98 0.97 0.96 0.96 0.99 1.01 1.01
0.60 0.61 0.62 0.62 0.62 0.63 0.61 0.59 0.56 0.53 0.50 0.43 0.46 0.53 0.53 0.47 0.44 0.45 0.48 0.44 0.33 0.28 0.26 0.25 0.29 0.29 0.36 0.39 0.40 0.49 0.63 0.65 0.52 0.55 0.52 0.46 0.35 0.34 0.38 0.47 0.53 0.55 0.43 0.32 0.36 0.39 0.41 0.30 0.28 0.30 0.37 0.40 0.44 0.44 0.47 0.65 0.72 0.73 0.83 0.85 0.83 0.84 0.92 1.09 1.18 1.35 1.44 1.32 1.25 1.30 1.28 1.32 1.33 1.39 1.46 1.57 1.59 1.49 1.47 1.38 1.22 1.08 0.97 0.94 0.92 0.93 0.97 0.98
0.61 0.61 0.62 0.63 0.63 0.62 0.61 0.58 0.55 0.52 0.51 0.51 0.50 0.41 0.31 0.31 0.24 0.22 0.29 0.29 0.35 0.36 0.29 0.30 0.30 0.34 0.34 0.39 0.44 0.49 0.49 0.54 0.57 0.52 0.53 0.58 0.46 0.37 0.41 0.48 0.44 0.35 0.36 0.38 0.35 0.40 0.38 0.27 0.26 0.32 0.44 0.46 0.46 0.50 0.50 0.61 0.66 0.65 0.73 0.79 0.82 0.88 0.85 1.06 1.10 1.30 1.39 1.23 1.19 1.28 1.25 1.30 1.33 1.43 1.56 1.63 1.59 1.43 1.44 1.36 1.28 1.14 1.03 0.96 0.90 0.88 0.94 0.98
0.60 0.61 0.63 0.63 0.63 0.61 0.61 0.58 0.55 0.57 0.60 0.57 0.48 0.37 0.37 0.39 0.44 0.46 0.36 0.20 0.25 0.30 0.31 0.31 0.39 0.39 0.45 0.47 0.50 0.54 0.55 0.47 0.49 0.54 0.61 0.57 0.48 0.35 0.42 0.42 0.36 0.30 0.36 0.36 0.34 0.30 0.26 0.23 0.24 0.31 0.47 0.51 0.48 0.49 0.52 0.57 0.57 0.62 0.62 0.73 0.76 0.84 0.99 1.13 1.17 1.31 1.33 1.21 1.13 1.25 1.18 1.24 1.37 1.46 1.55 1.59 1.52 1.58 1.56 1.48 1.35 1.21 1.07 0.99 0.97 0.94 0.92 0.98
0.60 0.62 0.63 0.63 0.62 0.61 0.60 0.59 0.59 0.58 0.55 0.48 0.41 0.40 0.38 0.45 0.52 0.50 0.39 0.25 0.19 0.25 0.25 0.32 0.37 0.41 0.44 0.51 0.53 0.58 0.45 0.40 0.41 0.52 0.56 0.58 0.47 0.45 0.39 0.36 0.34 0.35 0.34 0.33 0.25 0.24 0.19 0.21 0.25 0.28 0.42 0.48 0.46 0.47 0.52 0.54 0.54 0.55 0.55 0.59 0.60 0.79 0.77 0.77 1.09 1.23 1.25 1.15 1.11 1.22 1.17 1.23 1.35 1.43 1.50 1.60 1.59 1.57 1.59 1.52 1.48 1.37 1.18 1.03 1.00 1.00 0.95 0.92
0.59 0.62 0.63 0.62 0.62 0.61 0.64 0.61 0.63 0.60 0.54 0.51 0.47 0.42 0.50 0.54 0.51 0.49 0.31 0.18 0.12 0.16 0.20 0.35 0.41 0.43 0.45 0.43 0.54 0.51 0.42 0.42 0.46 0.46 0.64 0.58 0.43 0.50 0.39 0.35 0.33 0.32 0.30 0.30 0.27 0.23 0.18 0.22 0.28 0.28 0.35 0.44 0.41 0.46 0.51 0.51 0.50 0.53 0.51 0.50 0.55 0.68 0.75 0.81 0.94 1.13 1.22 1.23 1.29 1.23 1.14 1.16 1.23 1.21 1.30 1.50 1.62 1.57 1.54 1.53 1.48 1.46 1.35 1.20 1.12 1.07 1.05 0.95
0.59 0.61 0.63 0.63 0.61 0.64 0.64 0.66 0.58 0.55 0.59 0.54 0.48 0.52 0.56 0.55 0.51 0.45 0.29 0.22 0.20 0.18 0.26 0.35 0.44 0.44 0.43 0.53 0.52 0.43 0.46 0.47 0.50 0.56 0.62 0.58 0.51 0.46 0.40 0.39 0.34 0.28 0.29 0.30 0.27 0.23 0.22 0.28 0.31 0.26 0.29 0.37 0.39 0.42 0.49 0.51 0.49 0.49 0.47 0.44 0.51 0.62 0.72 0.88 1.01 0.98 0.94 0.94 1.16 1.12 0.88 0.89 1.14 1.20 1.24 1.38 1.47 1.47 1.53 1.47 1.41 1.43 1.39 1.28 1.12 1.05 1.06 1.05
0.59 0.62 0.62 0.62 0.62 0.62 0.66 0.54 0.57 0.58 0.53 0.45 0.47 0.52 0.55 0.53 0.46 0.45 0.33 0.21 0.13 0.18 0.19 0.23 0.39 0.34 0.46 0.37 0.45 0.46 0.47 0.42 0.52 0.56 0.58 0.60 0.60 0.46 0.43 0.37 0.34 0.25 0.27 0.27 0.24 0.24 0.22 0.29 0.28 0.23 0.24 0.30 0.35 0.41 0.48 0.51 0.50 0.42 0.39 0.44 0.46 0.59 0.75 0.84 0.91 0.90 0.76 0.70 1.00 1.21 0.83 0.77 1.09 1.13 1.21 1.29 1.36 1.40 1.49 1.46 1.44 1.42 1.43 1.37 1.23 1.09 1.04 1.03
0.60 0.62 0.63 0.61 0.61 0.62 0.47 0.43 0.60 0.57 0.43 0.41 0.52 0.52 0.52 0.53 0.48 0.45 0.30 0.19 0.16 0.18 0.18 0.28 0.33 0.36 0.42 0.42 0.46 0.47 0.29 0.35 0.55 0.59 0.55 0.59 0.52 0.56 0.40 0.34 0.32 0.33 0.30 0.28 0.22 0.17 0.21 0.25 0.26 0.26 0.22 0.23 0.30 0.36 0.45 0.51 0.47 0.38 0.43 0.41 0.44 0.60 0.68 0.80 0.86 0.84 0.82 1.00 1.09 1.15 1.02 0.81 0.83 1.06 1.28 1.31 1.30 1.36 1.40 1.40 1.42 1.40 1.42 1.41 1.34 1.21 1.10 1.05
0.60 0.62 0.62 0.61 0.60 0.60 0.50 0.57 0.53 0.46 0.44 0.50 0.56 0.52 0.50 0.53 0.52 0.47 0.32 0.13 0.14 0.25 0.23 0.31 0.32 0.44 0.41 0.51 0.51 0.43 0.33 0.46 0.39 0.49 0.59 0.57 0.57 0.50 0.43 0.33 0.29 0.28 0.28 0.25 0.13 0.19 0.20 0.22 0.23 0.23 0.21 0.19 0.24 0.35 0.56 0.56 0.45 0.41 0.45 0.46 0.53 0.63 0.71 0.85 0.88 0.83 0.84 0.82 0.77 0.96 1.04 0.81 0.81 1.04 1.28 1.32 1.19 1.27 1.32 1.35 1.37 1.38 1.38 1.42 1.40 1.32 1.21 1.13
0.60 0.61 0.61 0.60 0.59 0.60 0.65 0.57 0.50 0.42 0.51 0.51 0.50 0.53 0.55 0.55 0.51 0.38 0.25 0.15 0.26 0.26 0.33 0.28 0.36 0.32 0.38 0.49 0.44 0.42 0.34 0.42 0.39 0.46 0.56 0.58 0.57 0.52 0.38 0.38 0.36 0.34 0.35 0.29 0.19 0.23 0.24 0.26 0.26 0.26 0.23 0.16 0.22 0.41 0.49 0.50 0.46 0.43 0.48 0.63 0.75 0.85 0.89 0.93 0.88 0.83 0.82 0.71 0.62 0.79 0.94 0.71 0.75 0.98 1.07 1.25 1.23 1.20 1.29 1.36 1.38 1.39 1.36 1.39 1.42 1.43 1.35 1.23
0.61 0.60 0.60 0.59 0.57 0.55 0.53 0.56 0.45 0.46 0.51 0.48 0.50 0.56 0.56 0.52 0.41 0.27 0.20 0.14 0.27 0.21 0.26 0.27 0.27 0.22 0.30 0.36 0.40 0.38 0.34 0.34 0.39 0.47 0.52 0.48 0.49 0.52 0.50 0.52 0.41 0.37 0.34 0.33 0.28 0.26 0.28 0.33 0.33 0.27 0.23 0.21 0.21 0.34 0.42 0.47 0.46 0.68 0.65 0.64 0.81 0.88 0.87 0.92 0.91 0.87 0.76 0.56 0.62 0.79 0.89 0.82 0.65 0.86 0.98 1.01 1.08 1.23 1.32 1.40 1.43 1.41 1.40 1.44 1.48 1.51 1.44 1.30
0.59 0.59 0.59 0.59 0.43 0.48 0.49 0.38 0.38 0.46 0.50 0.53 0.57 0.59 0.56 0.47 0.30 0.22 0.15 0.21 0.30 0.26 0.29 0.27 0.22 0.25 0.21 0.26 0.31 0.34 0.34 0.35 0.36 0.40 0.42 0.48 0.45 0.49 0.48 0.42 0.46 0.38 0.34 0.30 0.26 0.26 0.26 0.29 0.28 0.29 0.29 0.26 0.24 0.28 0.35 0.40 0.50 0.56 0.66 0.66 0.75 0.77 0.86 0.82 0.80 0.84 0.58 0.50 0.65 0.80 0.84 0.86 0.60 0.77 1.01 1.16 1.29 1.34 1.35 1.32 1.34 1.36 1.40 1.43 1.47 1.52 1.52 1.45
0.57 0.59 0.59 0.55 0.52 0.56 0.34 0.31 0.42 0.51 0.54 0.57 0.58 0.55 0.47 0.25 0.30 0.19 0.18 0.34 0.21 0.24 0.25 0.25 0.26 0.24 0.22 0.28 0.33 0.29 0.29 0.30 0.35 0.39 0.38 0.38 0.39 0.41 0.43 0.37 0.39 0.31 0.26 0.24 0.20 0.25 0.22 0.25 0.28 0.28 0.32 0.28 0.23 0.23 0.29 0.37 0.49 0.60 0.68 0.69 0.56 0.56 0.62 0.52 0.62 0.58 0.55 0.49 0.63 0.78 0.83 0.75 0.71 0.91 1.08 1.16 1.23 1.30 1.38 1.42 1.39 1.38 1.41 1.45 1.50 1.55 1.58 1.58
0.57 0.57 0.57 0.55 0.55 0.47 0.51 0.58 0.65 0.62 0.59 0.58 0.56 0.49 0.33 0.22 0.16 0.23 0.24 0.27 0.21 0.26 0.25 0.29 0.25 0.24 0.24 0.26 0.29 0.30 0.29 0.25 0.33 0.39 0.43 0.40 0.38 0.39 0.46 0.45 0.43 0.38 0.25 0.26 0.23 0.20 0.22 0.27 0.27 0.27 0.28 0.30 0.26 0.21 0.28 0.32 0.40 0.57 0.54 0.59 0.53 0.48 0.47 0.43 0.51 0.59 0.58 0.63 0.74 0.73 0.87 0.70 0.86 0.96 1.18 1.14 1.24 1.35 1.39 1.45 1.56 1.53 1.48 1.47 1.52 1.59 1.60 1.63
0.56 0.57 0.50 0.53 0.51 0.54 0.61 0.69 0.69 0.69 0.61 0.59 0.52 0.40 0.29 0.18 0.17 0.31 0.25 0.25 0.23 0.28 0.27 0.26 0.25 0.24 0.25 0.24 0.26 0.28 0.24 0.26 0.30 0.38 0.43 0.38 0.35 0.34 0.38 0.44 0.44 0.38 0.32 0.27 0.23 0.22 0.18 0.18 0.22 0.26 0.22 0.30 0.27 0.27 0.31 0.33 0.37 0.45 0.56 0.56 0.53 0.58 0.50 0.42 0.48 0.42 0.47 0.56 0.66 0.83 0.69 0.65 0.68 0.78 1.20 1.29 1.33 1.40 1.48 1.53 1.58 1.61 1.58 1.58 1.61 1.64 1.66 1.63
0.56 0.57 0.56 0.53 0.53 0.58 0.63 0.66 0.66 0.64 0.63 0.56 0.43 0.33 0.22 0.19 0.24 0.22 0.23 0.24 0.26 0.26 0.23 0.26 0.23 0.21 0.23 0.27 0.27 0.28 0.28 0.24 0.31 0.36 0.40 0.37 0.29 0.29 0.32 0.36 0.42 0.40 0.35 0.26 0.28 0.25 0.23 0.21 0.26 0.28 0.30 0.30 0.27 0.31 0.36 0.39 0.39 0.48 0.56 0.61 0.60 0.57 0.63 0.47 0.51 0.52 0.55 0.58 0.58 0.68 0.67 0.84 0.84 1.17 1.27 1.36 1.38 1.38 1.46 1.50 1.53 1.55 1.62 1.63 1.60 1.58 1.59 1.64
0.53 0.55 0.57 0.45 0.44 0.51 0.61 0.64 0.67 0.68 0.62 0.49 0.36 0.26 0.22 0.25 0.23 0.28 0.25 0.30 0.27 0.24 0.23 0.24 0.24 0.19 0.21 0.24 0.27 0.26 0.28 0.24 0.27 0.34 0.37 0.34 0.30 0.26 0.30 0.34 0.36 0.38 0.33 0.28 0.30 0.24 0.25 0.20 0.28 0.30 0.32 0.32 0.31 0.34 0.37 0.44 0.33 0.43 0.51 0.49 0.52 0.62 0.60 0.53 0.58 0.67 0.67 0.60 0.55 0.79 0.72 0.86 1.06 1.11 1.24 1.28 1.29 1.31 1.39 1.44 1.48 1.51 1.57 1.60 1.58 1.58 1.59 1.63
0.48 0.51 0.40 0.40 0.44 0.57 0.64 0.68 0.68 0.66 0.59 0.44 0.31 0.24 0.29 0.31 0.33 0.31 0.31 0.28 0.27 0.26 0.23 0.19 0.20 0.21 0.20 0.22 0.25 0.24 0.25 0.26 0.28 0.30 0.30 0.31 0.26 0.29 0.29 0.32 0.38 0.36 0.35 0.33 0.29 0.32 0.23 0.24 0.31 0.31 0.28 0.36 0.41 0.40 0.42 0.44 0.49 0.47 0.40 0.45 0.49 0.52 0.56 0.52 0.46 0.57 0.55 0.46 0.56 0.70 0.63 0.69 0.72 0.64 1.13 1.18 1.18 1.24 1.28 1.33 1.40 1.47 1.52 1.51 1.57 1.60 1.62 1.64
0.48 0.44 0.44 0.47 0.56 0.65 0.70 0.71 0.69 0.62 0.51 0.39 0.28 0.31 0.38 0.30 0.34 0.32 0.31 0.31 0.30 0.28 0.24 0.22 0.22 0.28 0.23 0.23 0.23 0.25 0.27 0.25 0.26 0.27 0.27 0.28 0.25 0.32 0.29 0.30 0.36 0.38 0.38 0.40 0.33 0.31 0.32 0.24 0.30 0.35 0.36 0.37 0.43 0.44 0.39 0.42 0.47 0.48 0.46 0.50 0.42 0.36 0.35 0.49 0.50 0.43 0.42 0.42 0.50 0.63 0.70 0.72 0.73 0.73 0.95 1.01 1.07 1.14 1.22 1.29 1.32 1.35 1.43 1.47 1.55 1.63 1.68 1.71
0.48 0.43 0.39 0.56 0.67 0.67 0.68 0.73 0.66 0.56 0.42 0.31 0.28 0.26 0.32 0.32 0.33 0.32 0.32 0.33 0.32 0.29 0.25 0.25 0.24 0.28 0.27 0.23 0.26 0.28 0.26 0.23 0.29 0.27 0.25 0.27 0.25 0.30 0.30 0.33 0.33 0.39 0.41 0.42 0.36 0.35 0.34 0.27 0.28 0.37 0.36 0.38 0.40 0.40 0.33 0.34 0.39 0.47 0.50 0.46 0.47 0.43 0.38 0.36 0.41 0.53 0.51 0.46 0.45 0.51 0.64 0.58 0.78 0.83 0.97 1.01 1.09 1.14 1.20 1.25 1.27 1.35 1.44 1.49 1.51 1.60 1.66 1.68
0.42 0.40 0.41 0.55 0.65 0.68 0.69 0.68 0.56 0.48 0.37 0.27 0.28 0.28 0.33 0.29 0.31 0.33 0.34 0.32 0.30 0.30 0.28 0.27 0.29 0.28 0.29 0.27 0.28 0.26 0.28 0.28 0.27 0.28 0.29 0.30 0.29 0.33 0.31 0.34 0.34 0.38 0.42 0.44 0.39 0.40 0.33 0.35 0.26 0.32 0.38 0.40 0.33 0.35 0.36 0.36 0.33 0.36 0.40 0.39 0.41 0.42 0.43 0.40 0.45 0.47 0.47 0.45 0.44 0.44 0.46 0.59 0.80 1.00 1.04 1.07 1.12 1.17 1.22 1.23 1.30 1.38 1.45 1.54 1.63 1.66 1.71 1.72
0.55 0.42 0.38 0.57 0.64 0.68 0.65 0.56 0.43 0.36 0.33 0.34 0.35 0.30 0.30 0.29 0.31 0.31 0.34 0.35 0.34 0.36 0.33 0.31 0.30 0.29 0.30 0.28 0.27 0.30 0.28 0.29 0.28 0.28 0.31 0.30 0.32 0.26 0.34 0.33 0.37 0.37 0.42 0.41 0.39 0.40 0.35 0.34 0.29 0.31 0.32 0.34 0.37 0.40 0.40 0.41 0.41 0.39 0.38 0.36 0.39 0.37 0.33 0.30 0.28 0.50 0.54 0.49 0.46 0.42 0.39 0.60 0.88 1.12 1.13 1.13 1.18 1.21 1.28 1.28 1.29 1.41 1.48 1.50 1.57 1.67 1.72 1.74
0.45 0.33 0.37 0.61 0.67 0.64 0.53 0.39 0.38 0.42 0.35 0.30 0.29 0.32 0.29 0.35 0.29 0.27 0.31 0.34 0.34 0.34 0.37 0.34 0.34 0.32 0.31 0.31 0.31 0.30 0.30 0.29 0.29 0.29 0.31 0.29 0.32 0.32 0.35 0.38 0.38 0.41 0.39 0.37 0.38 0.43 0.43 0.39 0.34 0.29 0.31 0.34 0.38 0.41 0.43 0.42 0.40 0.40 0.40 0.38 0.40 0.39 0.39 0.34 0.26 0.35 0.47 0.50 0.57 0.54 0.45 0.55 0.98 1.13 1.17 1.19 1.22 1.25 1.29 1.29 1.29 1.37 1.47 1.51 1.56 1.64 1.73 1.80
0.43 0.38 0.52 0.63 0.66 0.62 0.47 0.36 0.38 0.35 0.31 0.33 0.39 0.37 0.36 0.32 0.30 0.30 0.28 0.29 0.31 0.35 0.34 0.32 0.33 0.32 0.34 0.33 0.32 0.32 0.32 0.30 0.32 0.29 0.32 0.31 0.32 0.34 0.38 0.37 0.39 0.40 0.41 0.40 0.44 0.47 0.54 0.38 0.33 0.34 0.34 0.37 0.39 0.42 0.41 0.44 0.39 0.35 0.39 0.39 0.40 0.38 0.38 0.36 0.34 0.42 0.41 0.47 0.43 0.50 0.44 0.58 0.94 1.14 1.17 1.19 1.24 1.26 1.29 1.31 1.34 1.42 1.45 1.51 1.57 1.60 1.63 1.70
0.48 0.45 0.47 0.64 0.66 0.58 0.43 0.32 0.32 0.33 0.34 0.37 0.35 0.31 0.34 0.33 0.31 0.29 0.27 0.30 0.29 0.32 0.30 0.33 0.35 0.35 0.34 0.35 0.33 0.30 0.33 0.28 0.34 0.34 0.32 0.33 0.32 0.36 0.37 0.38 0.40 0.38 0.40 0.40 0.41 0.48 0.40 0.40 0.38 0.31 0.29 0.30 0.33 0.37 0.38 0.40 0.40 0.34 0.33 0.35 0.37 0.41 0.44 0.47 0.46 0.54 0.39 0.47 0.46 0.38 0.34 0.51 0.88 1.08 1.13 1.13 1.15 1.16 1.19 1.27 1.33 1.32 1.43 1.51 1.53 1.59 1.64 1.70
0.52 0.52 0.56 0.59 0.60 0.53 0.38 0.40 0.37 0.35 0.34 0.32 0.30 0.28 0.28 0.29 0.31 0.30 0.30 0.31 0.33 0.34 0.32 0.33 0.37 0.38 0.35 0.37 0.34 0.33 0.34 0.32 0.31 0.34 0.36 0.34 0.33 0.36 0.36 0.37 0.40 0.40 0.43 0.50 0.52 0.55 0.42 0.41 0.37 0.29 0.26 0.23 0.23 0.24 0.27 0.33 0.35 0.36 0.35 0.36 0.37 0.37 0.42 0.42 0.36 0.42 0.35 0.48 0.50 0.41 0.42 0.64 0.88 1.00 1.01 1.04 1.07 1.10 1.18 1.23 1.29 1.35 1.38 1.44 1.53 1.58 1.59 1.65
0.43 0.33 0.42 0.48 0.52 0.47 0.45 0.47 0.41 0.36 0.34 0.34 0.30 0.31 0.31 0.30 0.30 0.32 0.31 0.32 0.36 0.36 0.37 0.40 0.40 0.41 0.38 0.36 0.34 0.32 0.32 0.35 0.32 0.32 0.35 0.34 0.33 0.34 0.37 0.37 0.39 0.41 0.44 0.48 0.51 0.51 0.43 0.43 0.40 0.35 0.32 0.30 0.29 0.31 0.36 0.41 0.36 0.31 0.34 0.37 0.38 0.42 0.46 0.43 0.45 0.40 0.34 0.46 0.45 0.50 0.51 0.57 0.69 0.82 0.88 0.94 0.99 1.02 1.09 1.16 1.20 1.24 1.32 1.40 1.47 1.53 1.57 1.59
0.53 0.39 0.39 0.37 0.43 0.41 0.39 0.42 0.39 0.37 0.33 0.35 0.29 0.32 0.29 0.32 0.32 0.30 0.35 0.29 0.36 0.37 0.38 0.40 0.41 0.39 0.38 0.37 0.35 0.33 0.34 0.33 0.35 0.34 0.33 0.32 0.33 0.33 0.36 0.37 0.38 0.40 0.44 0.43 0.51 0.50 0.43 0.38 0.39 0.39 0.36 0.35 0.35 0.34 0.36 0.39 0.36 0.35 0.35 0.37 0.41 0.41 0.43 0.40 0.38 0.36 0.48 0.43 0.38 0.55 0.61 0.53 0.65 0.78 0.84 0.86 0.92 1.00 1.07 1.14 1.19 1.22 1.26 1.30 1.37 1.46 1.51 1.54
0.40 0.48 0.53 0.57 0.43 0.33 0.34 0.28 0.34 0.34 0.36 0.37 0.32 0.33 0.31 0.29 0.30 0.31 0.33 0.35 0.36 0.37 0.35 0.39 0.42 0.41 0.42 0.40 0.39 0.34 0.34 0.33 0.34 0.32 0.34 0.32 0.32 0.33 0.32 0.36 0.36 0.40 0.41 0.41 0.49 0.47 0.42 0.37 0.39 0.37 0.36 0.35 0.35 0.35 0.36 0.35 0.38 0.40 0.41 0.41 0.39 0.42 0.42 0.40 0.42 0.46 0.49 0.37 0.33 0.52 0.62 0.57 0.68 0.78 0.85 0.87 0.91 0.94 1.03 1.12 1.20 1.26 1.27 1.28 1.30 1.34 1.39 1.44
0.58 0.55 0.55 0.67 0.42 0.41 0.39 0.36 0.36 0.36 0.33 0.33 0.33 0.31 0.31 0.30 0.30 0.34 0.35 0.33 0.34 0.35 0.38 0.34 0.38 0.42 0.44 0.47 0.45 0.40 0.38 0.30 0.30 0.36 0.33 0.33 0.32 0.32 0.31 0.33 0.34 0.39 0.38 0.37 0.43 0.50 0.44 0.38 0.42 0.40 0.35 0.35 0.34 0.35 0.37 0.35 0.37 0.40 0.46 0.46 0.45 0.43 0.44 0.46 0.46 0.53 0.53 0.50 0.54 0.61 0.65 0.65 0.75 0.82 0.89 0.92 0.97 1.01 1.08 1.17 1.20 1.20 1.20 1.23 1.24 1.26 1.32 1.38
0.47 0.47 0.49 0.61 0.54 0.46 0.45 0.38 0.36 0.33 0.31 0.32 0.27 0.29 0.31 0.31 0.29 0.33 0.37 0.34 0.30 0.32 0.39 0.35 0.38 0.43 0.45 0.47 0.46 0.42 0.42 0.40 0.38 0.34 0.36 0.36 0.33 0.35 0.33 0.34 0.33 0.36 0.37 0.34 0.38 0.46 0.44 0.38 0.42 0.38 0.34 0.33 0.34 0.35 0.37 0.39 0.36 0.37 0.44 0.49 0.48 0.47 0.48 0.51 0.52 0.58 0.60 0.56 0.62 0.65 0.65 0.65 0.84 0.95 0.94 1.00 1.03 1.05 1.06 1.07 1.08 1.15 1.18 1.19 1.21 1.22 1.26 1.31
0.63 0.71 0.72 0.53 0.37 0.42 0.43 0.39 0.35 0.32 0.29 0.31 0.27 0.30 0.30 0.31 0.31 0.33 0.35 0.41 0.37 0.33 0.36 0.35 0.40 0.41 0.44 0.44 0.44 0.44 0.47 0.44 0.41 0.41 0.41 0.39 0.33 0.36 0.34 0.34 0.37 0.30 0.32 0.32 0.33 0.38 0.44 0.44 0.43 0.36 0.31 0.30 0.33 0.32 0.33 0.38 0.38 0.38 0.39 0.42 0.45 0.46 0.41 0.49 0.47 0.54 0.47 0.50 0.58 0.63 0.60 0.64 0.82 0.91 0.95 0.98 0.98 0.97 0.98 0.99 0.99 1.07 1.18 1.21 1.18 1.18 1.21 1.26
0.73 0.75 0.80 0.63 0.39 0.46 0.39 0.41 0.39 0.33 0.27 0.31 0.31 0.30 0.30 0.31 0.33 0.34 0.28 0.36 0.40 0.41 0.41 0.40 0.41 0.39 0.40 0.41 0.41 0.44 0.48 0.48 0.45 0.43 0.43 0.42 0.41 0.39 0.39 0.39 0.37 0.33 0.31 0.33 0.36 0.33 0.39 0.45 0.40 0.36 0.32 0.30 0.33 0.33 0.31 0.32 0.32 0.31 0.35 0.40 0.43 0.53 0.55 0.53 0.54 0.56 0.52 0.56 0.52 0.48 0.50 0.72 0.79 0.88 0.85 0.90 0.93 0.94 0.93 0.92 0.93 1.00 1.13 1.20 1.21 1.18 1.20 1.23
Wind_Speed
14 13 13 13 12 12 12 12 12 13 13 13 14 14 15 15 15 15 14 14 14 14 14 14 14 14 14 14 15 15 16 16 16 16 17 17 17 17 16 16 16 16 17 17 17 17 16 16 15 14 13 11 10 9 9 8 6 4 3 2 4 5 5 1 4 5 13 19 18 18 17 14 13 11 10 10 11 12 11 11 12 12 13 15 17 20 20 19
14 14 14 13 13 13 12 12 12 12 13 13 14 14 15 15 15 15 15 15 15 15 15 15 15 15 14 14 14 15 16 17 17 18 19 18 17 18 18 17 16 16 16 17 18 18 17 17 16 15 13 11 10 10 9 8 7 5 2 2 3 4 2 2 6 8 14 17 17 16 15 14 13 11 11 11 11 12 12 12 14 14 15 17 19 20 19 19
14 14 14 14 14 13 13 13 13 12 13 13 14 14 15 15 16 16 16 16 16 15 15 15 15 15 15 14 14 14 15 16 17 18 18 19 19 18 19 19 17 17 16 16 18 18 17 17 17 16 14 12 11 11 9 7 7 6 3 2 2 1 1 5 8 10 13 17 17 15 14 14 12 11 10 11 12 12 11 12 14 15 17 19 20 20 19 19
15 15 15 14 14 14 14 14 13 13 13 13 13 14 15 15 16 16 16 16 16 16 16 15 15 15 15 15 14 14 14 15 16 17 16 17 19 20 20 19 18 18 16 16 17 17 16 16 17 16 14 13 12 11 10 9 8 6 4 2 1 2 3 6 9 11 14 17 16 14 14 14 12 10 10 13 12 10 11 13 14 17 19 20 21 20 19 18
16 16 16 15 15 15 15 14 14 14 14 13 13 14 14 15 15 16 16 17 17 17 16 15 15 15 15 15 14 14 14 14 16 16 15 16 19 21 21 20 19 19 17 15 16 17 17 16 15 15 14 13 12 11 10 11 9 6 4 3 2 3 4 7 10 12 15 15 14 14 14 14 12 10 10 13 11 9 12 14 16 18 20 21 21 20 19 18
16 16 16 16 16 16 15 15 15 15 15 14 14 14 14 14 15 16 16 17 17 17 17 16 16 15 15 15 14 14 14 14 15 16 15 16 18 21 21 20 19 19 18 16 16 17 17 16 15 14 13 12 13 12 11 12 11 7 5 3 3 4 5 8 10 12 15 15 13 14 14 13 12 10 10 11 9 9 13 15 16 18 19 20 20 20 19 18
17 16 16 16 16 16 16 16 15 15 15 15 15 14 14 14 15 15 16 17 17 17 17 17 16 16 15 15 15 15 15 16 15 15 15 16 18 20 21 20 19 19 19 17 17 18 18 17 16 15 13 12 12 13 13 12 12 9 6 5 4 4 6 8 9 10 12 13 13 14 15 13 13 11 10 10 8 10 13 15 17 18 19 20 19 19 19 18
17 17 17 16 16 16 17 16 16 16 15 15 15 15 14 14 14 15 16 16 17 17 18 17 17 16 16 15 15 15 16 17 16 16 16 16 18 20 20 20 19 19 19 18 17 18 18 18 18 15 13 12 12 12 13 12 12 10 7 6 4 4 5 7 9 9 11 12 12 14 15 14 14 12 10 9 9 12 15 16 16 17 18 19 19 19 18 18
18 18 17 17 17 17 17 17 16 16 16 15 15 15 15 15 15 15 15 16 17 17 18 18 17 17 16 16 15 15 17 17 17 17 16 17 18 20 20 20 20 20 19 19 18 18 19 19 18 16 13 12 12 12 13 12 11 10 8 7 5 6 6 7 10 10 11 13 12 13 13 14 14 12 9 8 11 15 16 16 17 18 18 18 18 19 19 18
19 18 18 17 17 17 17 17 17 16 16 16 15 15 15 15 15 15 15 16 16 17 18 18 18 17 17 17 16 16 17 17 16 17 17 17 18 20 20 20 21 21 19 19 19 20 20 20 18 16 14 12 12 12 12 13 12 10 8 6 6 7 6 6 9 10 11 12 12 12 12 12 13 11 10 10 13 17 17 17 17 18 18 18 18 19 19 18
20 19 19 18 18 17 17 17 17 17 16 16 16 16 15 15 15 15 15 15 15 16 17 18 18 18 18 17 17 18 17 16 17 17 17 18 19 20 21 21 21 21 20 19 20 22 21 19 18 16 13 12 11 10 10 12 12 12 10 7 6 6 6 6 9 11 12 12 12 13 12 11 11 11 11 13 16 17 17 17 17 17 18 18 18 18 18 18
21 20 20 19 18 18 18 18 17 17 16 16 16 16 16 15 15 15 15 15 15 15 16 17 18 18 18 18 19 20 18 17 17 17 17 18 19 20 20 21 22 22 22 20 20 23 22 19 17 15 13 11 10 9 9 11 12 12 10 9 8 7 6 7 8 10 12 12 14 15 14 11 11 11 13 15 17 17 17 17 17 17 17 17 18 18 17 18
21 21 20 20 19 19 18 18 18 17 17 16 16 16 16 16 15 15 14 14 14 14 15 16 17 18 18 19 20 20 18 17 17 17 18 18 19 20 20 21 22 23 22 20 20 22 23 20 17 16 14 12 11 10 10 11 11 10 10 10 10 8 7 8 8 10 12 12 14 15 14 13 12 12 12 15 18 18 17 17 16 16 16 17 17 17 17 17
22 21 21 21 20 20 19 19 18 18 17 17 16 16 16 16 16 15 14 14 14 14 14 15 16 17 19 20 20 19 19 19 18 19 19 19 19 20 21 21 22 23 22 21 21 21 22 21 18 16 15 14 13 11 9 9 9 10 11 10 10 10 9 9 8 10 13 13 14 13 13 13 13 12 11 15 19 18 17 16 17 16 17 17 17 17 17 17
22 22 21 21 20 20 19 19 18 17 17 17 17 17 17 16 15 14 13 14 14 13 13 14 15 16 18 20 19 19 19 19 20 20 20 20 20 20 22 22 22 23 23 23 22 21 21 20 19 17 16 16 14 11 10 9 9 11 11 10 10 10 10 10 9 10 12 14 15 13 13 13 13 13 12 15 19 17 16 16 17 17 17 17 17 17 17 17
22 22 21 21 20 20 19 18 17 17 17 16 16 17 16 16 15 14 13 13 13 13 13 13 14 15 16 19 19 18 19 20 19 20 20 21 21 21 22 23 22 23 23 23 22 21 20 19 19 19 18 16 14 12 11 10 11 11 10 11 12 11 11 10 9 9 10 14 15 14 14 13 13 15 14 16 18 17 16 16 17 17 17 17 17 16 16 16
22 22 21 20 20 19 18 17 17 17 16 16 16 16 16 15 14 13 13 13 13 13 14 14 15 15 16 18 18 18 20 21 19 19 20 21 21 21 22 22 22 23 24 23 22 20 19 19 19 19 17 15 14 13 11 12 12 12 11 11 12 12 11 11 10 9 11 13 14 14 14 14 13 15 16 17 18 18 17 16 17 17 16 17 17 16 16 16
22 21 21 20 19 19 18 17 17 16 16 16 15 15 15 14 14 13 13 13 13 13 14 15 14 14 15 17 18 19 19 20 20 19 20 21 22 22 22 22 22 23 22 21 21 21 20 19 19 19 17 16 15 14 13 13 14 14 13 12 12 12 12 11 10 11 12 12 14 15 15 14 14 15 17 18 19 18 17 16 17 16 17 17 17 17 16 16
22 21 20 20 19 18 18 17 16 16 15 14 14 13 13 12 13 13 13 13 14 14 14 15 15 14 15 17 18 19 19 20 20 20 21 22 22 22 22 22 22 22 21 20 21 21 20 20 19 20 19 18 17 16 15 14 13 14 13 12 13 12 12 11 10 11 12 11 13 16 15 15 16 17 18 17 18 19 18 16 16 16 17 17 16 17 16 16
22 21 20 19 19 18 17 16 16 15 13 12 12 11 11 11 11 12 13 14 15 15 15 16 17 16 16 17 17 18 19 20 20 21 22 22 22 22 22 22 22 22 21 21 21 21 20 20 21 21 21 19 18 18 16 14 13 13 13 13 13 11 11 11 10 11 11 10 11 13 14 16 18 18 17 15 16 19 18 16 16 16 17 17 16 17 16 16
22 20 19 19 18 17 16 15 14 13 11 10 10 10 10 10 10 11 13 14 15 16 17 17 17 17 17 17 17 16 17 19 21 21 22 23 22 22 22 22 21 21 22 22 21 20 19 21 22 22 22 20 19 19 17 14 13 13 13 13 12 11 11 11 11 11 10 10 11 11 13 16 17 17 16 14 16 17 16 16 18 17 17 17 17 17 16 16
21 20 19 18 17 16 15 14 12 10 9 9 8 9 10 10 10 11 11 13 14 15 16 16 16 17 17 17 18 17 17 19 20 21 23 23 23 22 22 21 21 21 21 21 20 20 20 21 22 22 22 21 20 19 17 15 14 14 13 12 11 12 11 11 11 11 10 10 11 12 13 15 16 16 15 14 15 15 14 15 17 19 18 17 17 17 16 16
20 19 17 16 16 14 13 12 10 8 8 8 8 8 9 9 10 11 10 11 13 13 15 16 16 16 16 16 17 17 17 18 20 22 23 24 23 23 22 21 21 21 21 21 21 20 20 20 21 22 22 22 21 20 18 16 15 15 14 12 12 13 12 12 13 12 10 10 11 12 12 13 15 16 16 15 14 15 15 13 14 18 18 18 17 17 16 17
19 17 16 15 14 12 11 10 9 7 8 8 8 8 8 9 10 10 9 10 10 11 13 16 16 16 16 15 15 16 16 18 20 21 23 24 23 22 22 21 20 21 21 21 22 21 21 19 18 20 22 23 22 21 19 18 16 15 15 13 12 14 13 12 14 13 11 10 11 11 11 13 15 16 18 16 15 16 16 14 14 15 17 17 17 16 17 17
17 15 14 13 12 11 11 9 7 7 8 8 7 7 7 7 8 7 7 7 8 10 12 15 15 15 16 14 15 17 16 16 19 21 22 23 23 21 22 21 20 21 21 21 21 21 21 20 19 19 21 23 23 22 21 19 17 14 15 16 15 15 13 12 15 14 12 12 12 12 11 12 14 16 18 18 17 18 17 16 15 15 16 17 17 17 17 17
15 14 13 12 11 11 10 8 7 8 8 7 7 7 6 5 5 5 5 5 6 8 11 14 14 14 14 14 15 16 14 15 18 21 21 23 23 21 21 21 20 21 21 20 20 20 21 20 20 20 21 22 23 23 22 20 17 15 15 16 15 15 14 15 17 14 13 13 13 13 11 10 12 15 17 18 19 20 19 18 17 16 16 16 17 17 17 18
14 13 12 11 11 10 8 7 7 8 7 6 6 6 5 4 3 3 4 3 5 7 10 13 13 13 13 14 16 15 13 15 17 19 21 22 23 21 21 21 20 20 21 20 19 20 21 20 21 21 21 22 23 24 23 21 18 16 15 15 15 15 15 17 18 14 12 11 11 13 11 8 10 12 15 18 20 21 21 21 19 19 17 17 17 16 17 18
13 12 11 11 10 9 7 6 7 6 6 6 6 5 3 2 2 3 3 3 5 7 10 13 12 12 13 14 16 15 13 15 16 18 21 22 21 21 20 21 21 20 20 21 20 20 20 21 21 22 21 22 24 24 23 22 20 16 14 14 14 15 16 18 17 14 12 11 12 14 12 8 9 10 12 16 20 22 23 23 21 20 20 18 18 17 16 17
12 11 10 10 9 8 6 5 5 5 5 5 4 3 2 0 1 2 3 4 4 6 9 12 11 11 13 14 15 14 12 13 15 17 20 21 21 20 20 21 21 20 20 21 21 20 20 21 21 21 21 22 24 24 24 24 21 16 13 12 12 14 16 16 15 13 12 11 13 16 13 9 8 10 12 13 17 20 23 24 23 22 21 20 18 17 17 17
11 10 10 9 8 6 4 4 5 4 4 4 3 1 1 1 2 3 3 3 4 5 7 10 11 11 12 14 14 14 13 13 14 15 17 19 20 19 19 21 20 20 20 19 20 21 21 21 21 21 22 22 23 24 24 24 21 15 13 12 13 14 15 14 14 13 11 11 14 17 16 11 8 9 12 13 14 17 20 22 24 24 23 21 19 18 17 17
10 9 9 7 6 4 3 3 3 3 3 2 1 1 2 2 2 3 3 3 3 4 6 8 10 10 12 14 15 14 14 14 13 15 17 18 19 19 19 20 19 18 18 18 19 20 20 20 21 21 22 22 21 23 24 23 21 17 15 15 14 14 14 13 12 12 11 11 12 15 16 12 10 9 11 13 12 13 18 20 23 26 25 22 20 19 18 17
9 9 8 6 4 3 2 2 2 3 2 1 1 1 2 2 2 2 2 2 2 4 6 8 9 9 11 14 15 15 14 14 13 15 16 16 17 20 20 20 20 18 17 18 18 18 20 21 20 20 21 22 22 22 23 22 21 19 17 17 16 14 13 12 12 12 12 12 11 14 15 12 12 10 9 13 13 12 16 18 20 24 26 25 22 20 19 17
9 9 7 4 3 2 1 2 2 2 1 1 1 2 3 3 2 2 1 1 2 4 5 8 9 9 11 13 14 15 14 14 14 14 15 15 15 18 20 19 20 18 17 18 17 17 19 20 20 20 20 22 23 23 23 22 22 22 21 20 18 15 14 13 13 12 12 12 10 13 14 11 12 11 9 10 11 11 14 17 20 22 24 24 23 21 20 19
9 8 5 3 2 1 1 1 2 1 2 2 2 3 4 3 1 1 0 1 2 2 4 7 8 8 11 13 14 14 13 13 13 14 15 14 13 16 18 18 19 18 17 17 17 18 18 18 20 22 21 22 24 24 24 22 22 23 22 21 20 19 16 15 15 13 12 11 10 12 14 12 12 11 9 9 9 9 11 15 19 22 23 23 23 22 21 20
8 6 4 3 1 1 0 0 1 2 3 3 4 4 4 2 1 1 1 0 0 0 2 5 6 7 10 11 12 13 13 12 12 13 15 14 13 15 17 18 18 19 18 18 18 18 18 19 21 21 21 22 23 23 23 21 20 22 22 21 21 21 17 14 14 14 13 11 10 12 12 12 12 11 10 10 9 9 11 13 16 19 22 23 22 22 23 22
6 4 3 2 1 1 1 2 2 2 3 3 4 4 3 1 1 1 1 0 1 1 2 4 5 6 8 10 10 11 12 11 12 13 14 15 14 13 16 18 18 19 20 19 19 17 17 18 19 19 20 21 23 23 22 22 22 21 22 22 21 19 17 14 13 13 13 11 11 13 12 11 12 12 11 11 10 10 11 13 15 17 19 21 21 22 24 24
4 3 2 1 1 1 2 3 3 3 3 4 4 3 2 1 1 1 1 2 1 1 3 4 4 6 8 10 10 10 11 10 11 14 14 14 13 12 15 17 17 19 20 20 19 18 18 18 18 19 20 20 21 21 20 21 22 21 22 23 20 17 16 15 13 13 13 12 12 12 13 13 13 12 11 12 11 11 11 12 15 17 19 20 21 22 24 25
4 3 2 1 1 2 3 3 3 3 3 4 3 1 1 1 1 1 3 3 1 1 3 4 4 6 8 9 9 10 11 11 11 13 14 13 13 13 14 16 17 17 19 20 19 18 18 17 17 20 21 20 19 20 19 20 21 22 22 22 19 17 17 16 15 15 13 13 13 12 12 14 14 12 13 13 12 11 11 11 13 16 18 19 20 22 24 25
3 2 1 1 1 2 3 3 2 3 3 3 2 0 1 1 3 3 3 3 1 1 2 4 5 6 8 9 9 9 9 10 11 12 13 13 14 14 14 15 16 15 17 19 18 18 19 18 18 19 21 20 19 20 21 20 20 20 20 21 19 18 18 17 16 15 14 13 14 13 13 14 15 14 14 14 13 12 11 10 11 13 15 17 18 20 23 25
2 1 1 1 1 3 3 2 2 2 2 1 1 0 1 2 3 4 3 1 1 2 3 4 5 6 7 8 9 9 8 9 10 11 12 13 13 13 13 14 16 16 16 17 17 18 19 18 18 19 19 20 20 21 23 22 21 21 20 20 20 19 18 17 15 15 15 14 13 13 13 14 15 15 14 14 13 12 12 10 9 10 12 14 16 18 22 24
1 1 0 0 2 3 3 1 0 1 1 0 1 1 2 2 2 4 3 1 1 2 4 5 5 6 8 7 8 9 9 9 9 10 11 12 13 14 14 14 15 16 16 15 16 17 18 18 19 20 19 20 20 21 23 23 22 22 22 21 21 21 19 17 16 15 16 15 14 14 13 13 14 14 14 13 13 13 12 11 10 9 8 10 13 16 20 22
1 0 1 1 2 3 2 1 1 1 1 1 1 1 2 2 2 3 3 2 1 3 4 5 5 5 7 8 8 9 9 8 9 10 11 12 13 14 14 14 14 15 16 16 17 17 18 18 19 20 21 21 20 20 21 21 21 21 21 21 21 21 20 19 18 17 16 15 15 14 12 12 14 14 14 13 13 13 12 11 10 9 8 8 10 13 16 20
1 0 1 1 2 2 2 1 1 0 1 2 2 2 2 1 2 2 3 2 2 4 4 5 5 5 7 8 8 9 9 8 9 11 11 11 13 14 14 13 13 15 15 15 16 16 17 17 18 18 19 19 18 18 18 18 18 19 20 21 21 21 20 21 20 18 17 17 17 14 12 14 16 15 14 14 14 13 12 12 11 10 9 8 9 11 13 16
0 1 1 1 2 3 1 0 1 1 2 3 2 2 2 1 1 2 2 2 3 4 5 5 6 6 7 8 8 9 9 9 9 10 11 12 12 13 13 12 12 14 14 14 15 16 16 17 18 17 17 17 17 17 18 17 18 19 20 20 21 20 19 20 19 18 17 18 19 17 15 16 17 16 15 15 14 13 12 12 12 11 10 9 9 10 11 13
1 1 2 2 2 3 2 1 2 1 3 3 2 3 2 2 1 2 2 1 2 3 4 5 5 6 7 7 8 8 9 9 10 9 10 11 12 12 12 11 12 13 14 14 15 15 15 16 18 19 19 19 19 19 20 20 18 18 19 19 20 20 20 20 20 19 19 19 19 18 17 17 18 18 17 16 15 13 12 12 12 12 11 10 10 10 10 11
1 2 3 2 1 3 3 3 1 1 2 2 2 3 2 1 2 2 2 1 1 1 3 4 4 5 5 6 7 7 8 9 10 9 9 10 11 12 12 11 11 12 12 11 11 13 15 14 15 18 18 19 21 21 21 21 19 19 18 18 19 19 19 19 20 21 21 20 19 19 19 19 20 20 19 17 16 14 14 13 12 12 12 12 11 11 11 11
2 2 2 2 2 2 2 3 2 2 2 1 2 2 1 1 1 1 1 1 1 1 3 2 2 3 5 6 7 7 7 8 9 9 9 10 10 11 11 11 11 11 11 11 10 13 15 12 12 15 16 17 19 19 19 19 20 19 18 18 18 19 19 19 20 21 22 20 19 20 21 21 21 21 20 18 16 15 15 14 13 12 13 13 12 12 11 11
3 3 3 2 3 2 1 2 1 0 0 1 2 1 1 0 0 1 2 2 1 1 2 2 0 2 5 6 7 7 7 8 8 9 9 8 8 8 8 10 11 10 11 12 12 13 14 12 11 12 13 14 15 16 17 18 19 18 17 17 18 18 19 19 19 20 20 20 20 22 22 22 22 22 20 19 18 16 16 15 13 12 13 13 13 13 13 12
3 3 3 2 3 4 3 2 2 0 1 1 1 1 1 1 1 0 2 2 2 2 3 3 1 0 3 5 6 7 8 8 8 7 8 8 7 8 8 9 11 10 11 12 13 15 15 13 11 12 12 12 12 14 16 17 18 17 16 16 17 17 17 18 18 18 17 17 18 20 21 20 21 21 20 19 18 17 16 15 14 13 13 13 12 13 14 14
3 3 3 3 3 4 3 2 2 1 1 0 1 1 1 1 1 1 1 0 2 3 2 4 3 1 3 4 5 7 9 10 9 8 8 8 8 8 9 9 10 10 11 12 13 15 16 14 12 13 13 11 11 12 13 16 18 17 15 15 16 16 15 16 17 17 16 16 17 19 19 19 20 20 19 19 18 18 17 16 14 13 13 13 12 12 13 14
4 4 4 3 4 4 3 2 2 1 1 1 1 2 2 1 1 1 1 1 1 2 2 4 4 3 3 4 5 6 8 10 9 8 8 8 8 8 9 9 10 10 11 13 13 14 17 16 12 11 12 12 11 12 12 14 15 15 14 15 15 17 17 16 17 18 18 18 19 20 20 20 20 20 19 19 19 18 17 17 15 14 13 13 13 12 12 12
4 5 4 5 5 4 3 3 2 1 1 2 1 2 2 2 2 2 1 1 2 3 3 5 5 4 3 3 4 4 6 8 8 8 8 7 6 7 7 7 8 9 11 13 13 13 17 18 13 10 12 13 11 12 13 13 12 13 15 16 16 18 18 17 16 16 17 19 20 20 20 20 20 20 20 20 19 18 17 16 15 15 15 14 13 13 13 13
Wind_Direction
325 321 319 315 312 307 302 298 293 289 283 278 274 270 266 264 262 260 259 258 257 256 254 253 252 251 250 248 243 240 239 236 235 230 227 226 222 219 212 209 207 203 201 201 201 201 202 203 203 203 202 203 209 213 209 214 221 234 257 292 317 328 337 349 138 134 145 152 157 160 164 161 155 153 142 136 136 137 136 135 140 138 138 146 148 147 146 146
324 320 317 314 311 308 305 300 296 292 286 281 276 272 268 265 262 260 258 257 256 256 254 253 251 250 249 248 245 241 239 235 234 232 229 226 220 215 210 207 205 201 199 199 200 199 200 202 203 202 201 204 209 209 207 211 212 225 258 291 307 334 348 160 141 137 146 153 156 158 163 162 156 152 146 141 138 136 133 137 140 136 138 144 148 148 147 147
324 320 316 312 309 307 304 302 298 294 289 284 279 274 270 266 263 260 258 256 256 255 254 252 250 249 246 245 245 242 238 234 232 231 229 224 218 213 207 205 203 201 200 200 199 198 199 200 201 201 202 206 210 207 208 211 208 222 240 287 298 342 139 164 152 149 153 155 157 159 161 160 156 151 148 145 139 138 139 142 143 141 144 147 150 150 149 148
324 320 316 312 308 305 302 300 298 295 291 287 282 277 272 267 264 260 258 256 255 255 253 252 250 247 244 242 243 241 237 234 229 224 223 219 214 210 206 203 203 201 202 203 199 198 199 198 199 201 201 207 212 208 210 211 207 216 221 249 257 157 149 163 163 158 157 159 160 161 162 161 159 153 150 146 140 142 147 148 148 147 148 150 151 152 151 151
324 320 316 312 308 304 300 298 295 294 291 288 284 279 274 269 265 261 258 256 254 253 252 251 249 246 242 240 239 238 233 228 224 220 219 217 211 208 205 203 203 202 202 203 200 199 199 198 197 200 201 206 210 208 213 212 207 212 214 222 203 176 159 163 167 162 161 164 163 163 165 164 162 157 155 151 144 146 149 149 150 149 150 152 152 152 153 152
324 320 316 313 309 305 300 297 294 292 290 288 285 281 277 271 266 262 258 256 254 252 250 249 248 244 241 238 235 232 227 225 223 218 217 214 208 205 204 203 203 202 203 203 202 199 198 197 195 197 200 206 209 209 216 213 207 214 216 222 211 184 168 165 168 166 165 167 167 168 167 164 160 159 160 154 146 145 148 149 149 150 152 153 153 153 154 154
322 319 316 312 309 306 302 298 294 291 289 287 285 282 278 273 268 263 259 256 253 251 248 247 246 242 239 237 232 228 227 226 223 217 215 211 205 203 203 204 203 202 203 203 202 200 198 196 195 197 198 205 207 210 220 216 209 213 213 217 212 179 170 165 167 173 172 169 171 169 167 166 161 161 163 156 150 147 148 149 148 150 153 154 154 155 155 156
320 318 315 312 309 306 303 300 296 292 289 287 284 282 279 274 270 266 261 257 253 250 247 244 242 239 237 233 230 230 228 225 220 216 213 208 204 202 201 204 204 202 202 203 203 199 197 196 196 196 197 206 208 212 221 216 212 212 206 209 206 183 175 163 167 176 176 174 175 169 167 170 166 163 165 162 154 149 147 147 148 151 154 156 157 157 157 158
318 316 314 311 308 306 303 301 298 293 290 287 284 281 279 275 271 268 263 259 253 249 246 242 239 236 233 230 228 231 226 221 218 214 210 207 205 202 201 204 205 202 202 204 203 200 199 197 196 196 197 206 212 218 217 209 212 209 199 204 200 189 180 169 172 176 178 179 179 173 168 171 170 165 166 168 156 150 149 148 149 153 156 158 159 159 160 160
317 315 313 311 308 306 303 300 298 294 291 287 283 281 279 275 272 268 264 261 254 249 245 240 236 232 231 228 224 225 222 217 214 211 208 207 205 203 204 204 203 202 201 202 202 199 198 195 195 197 200 209 215 219 214 207 208 196 184 191 192 191 190 180 177 178 181 180 179 178 172 172 176 174 172 169 158 152 151 150 152 156 158 160 160 161 162 162
316 314 312 310 308 306 303 300 297 294 290 286 283 279 277 275 271 268 264 261 255 249 244 238 234 229 229 226 221 222 220 216 213 211 209 207 205 205 205 204 203 202 200 200 201 198 195 194 194 197 202 211 216 218 216 206 196 184 178 189 199 196 193 184 178 184 188 185 182 174 169 178 185 181 175 168 161 156 154 154 155 158 160 161 162 162 163 164
315 313 311 310 308 306 303 300 297 293 290 286 282 278 275 274 270 267 263 259 255 249 242 237 231 227 227 227 223 221 219 216 214 213 211 208 208 208 206 205 203 202 199 199 199 197 196 197 196 201 208 212 216 216 210 198 189 188 190 196 205 204 197 189 184 188 189 188 183 169 167 184 188 181 176 169 164 158 157 159 159 161 163 162 163 164 164 166
314 312 310 309 307 306 303 300 297 293 289 285 281 277 273 272 269 266 262 256 252 248 242 235 229 227 227 227 224 220 219 218 215 214 213 211 210 209 206 205 204 202 201 198 196 196 199 201 201 209 214 211 215 211 197 190 189 196 202 200 202 205 204 198 190 186 185 186 185 176 175 185 187 186 183 172 166 160 160 163 164 164 165 165 165 165 166 168
313 311 309 308 306 305 303 300 296 292 288 284 280 275 272 270 267 264 259 253 250 246 239 232 228 227 226 226 223 220 220 218 216 215 214 213 210 207 205 203 203 202 201 198 197 198 200 204 207 213 215 211 213 207 194 195 196 197 201 204 203 203 201 196 189 182 181 185 188 185 182 184 188 191 187 174 167 163 163 166 167 167 168 168 167 167 168 169
313 311 309 308 306 305 303 300 296 292 288 283 278 273 270 268 265 262 256 249 247 242 233 229 228 228 229 227 222 219 218 215 215 214 213 212 208 206 203 201 201 201 200 199 199 200 201 205 207 210 213 211 208 204 201 204 202 198 197 204 205 198 194 191 187 183 181 184 189 189 184 184 191 194 188 177 171 167 166 169 169 169 169 170 169 169 170 169
313 311 309 308 307 306 304 301 297 292 287 282 276 271 268 266 262 257 251 246 244 236 229 228 228 227 227 224 219 217 214 212 214 212 211 210 206 205 200 198 199 199 199 200 201 204 206 207 207 207 209 207 201 197 199 200 201 202 197 199 199 192 192 190 187 188 182 182 190 193 186 184 191 194 190 181 176 173 170 171 171 170 171 172 171 171 173 171
313 310 309 308 307 307 305 302 297 293 287 281 275 270 266 263 258 253 248 245 240 234 231 230 229 227 225 221 216 213 212 213 213 210 208 206 203 201 196 196 198 197 198 200 203 207 208 207 205 205 205 202 201 196 194 198 201 202 198 198 197 191 192 189 184 187 183 183 190 193 190 189 189 191 190 185 182 178 174 173 174 173 173 174 173 173 176 174
314 310 308 307 307 307 305 301 297 294 288 281 275 269 265 260 256 251 247 243 239 236 235 231 226 223 221 218 213 212 213 214 212 209 205 201 199 197 194 195 195 193 195 201 205 207 208 207 203 203 203 201 200 196 195 200 199 197 197 197 195 193 194 193 188 186 183 185 190 190 191 190 187 191 192 188 185 183 178 175 176 176 176 178 176 176 178 177
313 310 307 306 307 307 304 301 298 294 289 282 275 268 263 259 255 250 246 243 239 236 235 226 218 218 219 217 216 216 217 214 210 206 203 200 198 197 195 195 193 192 195 201 205 205 205 205 202 202 203 201 198 197 198 200 196 197 200 197 195 194 195 194 192 187 182 183 189 191 194 191 189 194 194 189 188 185 181 179 179 178 179 180 179 180 181 178
313 309 307 306 306 306 303 300 298 296 290 281 273 267 261 257 254 250 247 244 241 237 235 226 219 222 223 220 218 217 216 212 208 204 201 199 197 197 197 195 194 195 197 201 204 205 203 205 206 204 202 201 198 198 200 197 193 195 201 202 201 199 196 194 192 188 185 187 191 193 196 194 192 194 193 190 191 187 183 184 185 182 181 181 182 184 183 181
312 309 307 306 306 305 303 301 300 298 292 283 274 267 260 256 254 252 248 246 245 239 235 228 220 221 223 221 217 213 212 212 208 205 202 199 196 196 199 197 195 198 202 202 204 205 203 205 209 206 201 201 200 200 201 197 192 194 198 200 204 204 202 200 194 188 190 195 195 193 196 198 196 194 190 189 192 190 189 190 188 187 184 183 185 186 184 183
312 309 307 307 307 307 304 303 302 297 294 287 277 268 262 258 255 255 251 248 247 239 231 225 218 220 222 220 217 211 209 210 209 206 202 199 198 198 200 198 197 201 203 202 203 206 207 209 211 207 201 201 203 203 202 199 197 198 198 199 204 204 200 200 195 191 198 203 199 196 197 199 198 196 192 191 194 194 194 194 192 190 187 186 189 188 185 183
312 309 309 309 309 308 304 302 299 293 292 288 280 273 267 264 261 260 254 245 244 239 225 215 212 214 216 215 211 204 204 206 206 206 202 199 200 201 199 198 199 201 202 201 201 204 207 209 210 208 202 201 206 207 203 202 202 201 200 202 206 205 202 203 199 195 203 206 200 197 201 202 199 199 197 195 197 198 196 196 196 193 190 190 191 191 187 183
312 311 311 311 311 308 302 299 293 289 296 293 286 280 276 275 268 260 252 240 238 237 220 207 206 207 209 209 203 200 203 205 205 204 202 199 201 202 201 200 201 203 205 203 202 204 209 210 207 205 203 202 207 209 204 202 205 204 203 205 207 206 207 204 198 197 203 207 199 193 202 208 203 203 204 200 200 201 199 198 199 196 191 191 192 192 191 186
314 313 313 313 310 305 301 297 288 294 302 299 295 292 288 283 267 250 244 235 231 232 214 203 204 206 208 207 203 202 203 206 206 203 201 199 200 202 203 203 203 205 207 204 203 207 212 211 204 203 204 202 206 209 204 200 204 208 207 208 208 208 205 194 191 194 200 208 205 196 200 209 208 206 206 204 202 203 203 201 202 200 193 191 191 192 192 188
316 315 315 313 309 307 302 291 288 300 303 300 303 303 296 282 262 238 227 221 220 222 207 199 202 206 208 206 202 198 198 206 206 201 199 200 201 202 203 206 206 206 206 203 205 209 210 206 201 202 204 202 205 209 203 197 201 209 209 209 209 208 200 190 190 194 201 209 207 201 203 207 209 210 208 206 205 205 206 206 204 203 198 192 191 192 192 189
318 317 316 313 311 310 300 286 293 302 300 303 310 308 296 279 253 221 210 207 211 210 200 197 201 204 205 204 195 190 198 206 202 200 199 199 202 202 203 207 206 205 204 202 207 209 206 203 200 202 204 203 205 207 202 196 199 208 208 204 204 202 197 193 193 197 203 201 195 200 205 203 206 209 206 207 207 205 207 209 206 205 202 195 192 193 192 190
320 319 316 314 314 311 298 291 298 299 296 305 312 305 292 274 227 196 187 190 204 204 196 195 198 202 203 199 191 191 200 198 195 202 200 197 201 201 203 206 202 202 203 201 207 209 204 202 202 201 204 206 204 202 199 196 201 209 207 203 203 201 197 194 194 198 201 194 194 203 206 201 204 205 201 205 207 206 207 208 206 204 203 198 194 195 194 192
322 319 317 316 316 310 296 290 294 295 299 310 313 301 289 248 163 166 168 176 197 200 194 196 202 204 201 196 194 197 200 195 195 201 198 197 201 201 202 204 201 204 207 203 207 210 205 204 203 201 204 206 204 202 199 198 205 210 202 199 201 199 197 195 196 198 199 199 203 205 203 202 205 204 199 201 207 208 207 206 205 205 203 200 198 196 195 194
323 321 319 320 319 311 293 286 288 295 306 312 308 304 58 112 136 147 165 171 188 196 193 198 205 205 199 195 199 201 199 199 199 197 197 198 200 201 202 202 201 206 209 207 210 212 209 208 207 204 205 203 202 203 200 198 203 203 200 198 195 195 197 197 201 201 202 212 213 206 202 205 210 209 202 200 205 205 203 204 205 205 203 201 200 198 197 196
327 324 322 322 322 315 297 295 302 308 316 317 306 38 84 108 120 133 166 174 184 203 203 202 205 204 198 195 199 200 198 201 199 194 197 198 198 202 203 202 204 206 210 212 213 213 210 209 209 207 204 200 198 202 199 198 201 201 204 201 190 194 199 198 204 208 208 215 216 206 200 205 213 211 205 206 208 202 199 202 204 204 203 202 201 199 199 199
330 326 323 320 320 316 300 322 344 340 335 343 26 70 101 108 102 129 171 189 195 211 209 204 205 204 197 195 198 199 198 201 200 195 195 195 197 202 203 203 205 207 211 211 211 214 211 210 209 206 204 198 196 200 198 198 202 201 201 196 188 195 203 201 205 211 211 213 214 202 196 206 214 211 213 212 210 203 199 201 202 201 203 205 205 202 202 202
330 328 327 321 313 318 328 355 359 353 358 44 73 79 101 104 111 149 173 218 212 216 207 198 201 198 189 192 198 200 198 201 202 198 195 192 196 203 207 206 204 204 207 207 208 212 211 213 210 203 204 200 195 198 198 199 202 200 198 196 192 194 200 203 205 211 213 213 214 201 196 210 214 210 219 212 204 202 200 199 200 201 204 207 207 205 204 204
330 330 336 330 317 323 343 14 10 24 56 75 85 85 91 97 106 114 44 234 218 233 211 192 194 193 186 191 198 196 194 200 201 195 193 193 197 204 208 208 205 202 203 206 208 205 204 211 208 202 204 201 197 199 199 199 202 202 202 200 196 195 198 203 206 210 209 204 207 203 202 214 212 210 220 210 200 202 198 194 196 202 206 206 206 206 205 205
331 332 341 344 343 325 300 104 35 63 75 77 84 87 92 97 58 46 49 235 192 304 200 179 178 188 191 195 198 193 191 198 200 192 192 194 198 205 206 206 206 202 201 206 208 204 204 210 209 205 203 198 197 201 200 198 201 204 203 200 201 201 199 203 208 205 198 196 204 207 208 215 213 214 219 208 201 200 196 193 192 196 202 204 206 207 206 206
335 340 351 355 1 29 112 122 114 97 84 80 85 87 93 96 79 79 66 317 22 88 160 162 168 183 193 198 199 197 193 196 198 195 194 196 199 206 205 205 205 203 202 204 206 206 206 210 210 206 203 199 198 200 202 201 200 201 200 201 205 205 200 202 207 203 197 200 210 210 209 212 211 212 214 206 202 201 199 198 195 194 197 201 206 208 207 206
338 343 351 353 356 113 128 125 115 96 77 85 91 93 102 100 113 112 328 313 323 113 145 158 173 177 186 193 196 199 197 196 197 195 195 198 202 205 204 205 205 203 204 204 206 207 204 208 211 203 200 201 197 196 203 206 202 199 201 203 204 204 204 201 201 205 206 208 214 213 210 209 207 209 211 208 204 204 206 205 202 200 200 203 208 208 207 206
335 343 1 37 80 133 143 135 114 89 78 93 96 92 101 78 277 273 297 293 269 131 139 157 169 170 177 181 187 198 199 195 195 195 195 197 201 200 200 202 202 203 206 204 205 206 202 206 212 204 199 201 197 194 201 208 206 203 203 204 203 203 207 205 203 207 209 210 214 216 217 214 209 208 210 209 203 203 211 212 208 207 206 206 208 208 207 206
342 9 39 53 85 138 155 150 120 88 82 96 99 62 52 339 293 285 290 279 233 159 152 166 167 168 177 179 181 193 196 190 188 190 192 193 197 197 194 196 199 203 204 200 201 204 202 202 207 206 202 201 200 199 201 204 206 205 204 206 207 206 205 204 206 207 205 210 214 213 219 219 213 212 211 208 203 203 209 211 212 215 212 208 208 206 205 205
12 53 53 29 97 151 159 150 117 88 86 108 138 188 344 331 303 305 313 291 229 187 172 177 175 175 184 187 186 188 189 190 187 185 190 194 195 196 195 193 196 202 201 197 197 201 202 200 201 205 204 200 201 203 202 201 202 203 204 206 208 207 205 204 209 210 204 207 210 209 216 219 214 215 212 205 204 206 207 206 210 217 210 207 209 205 203 204
26 59 270 40 128 159 146 120 167 120 100 187 195 240 329 336 306 304 319 329 210 187 174 175 177 181 188 192 193 192 191 195 194 187 191 198 195 196 197 193 195 200 198 196 199 200 201 200 197 199 200 199 204 207 203 201 202 202 204 206 207 207 206 205 211 216 208 206 207 205 211 215 212 212 210 204 205 206 205 201 205 210 203 202 207 204 203 204
32 92 205 112 131 156 122 101 237 194 138 236 266 272 306 339 329 298 303 310 221 195 184 181 182 184 189 192 195 193 190 198 203 194 193 200 199 199 204 202 200 199 193 196 204 203 199 197 196 199 200 200 208 210 204 202 202 201 205 208 207 208 208 206 210 215 211 209 210 206 208 212 210 211 209 205 205 204 202 200 200 203 200 197 200 200 201 204
22 237 196 155 159 154 95 14 276 348 256 256 273 264 257 316 340 314 298 281 232 215 205 198 195 191 190 191 191 190 188 195 203 198 194 199 203 207 212 211 205 198 193 197 203 202 200 199 198 201 203 204 209 211 207 206 203 202 208 210 207 210 212 209 210 211 208 210 212 211 216 214 207 210 210 204 202 202 200 198 195 196 199 198 197 198 200 203
292 254 203 202 202 175 127 221 241 308 289 276 283 276 272 295 338 335 311 264 235 218 207 208 204 198 198 195 190 192 192 192 200 203 197 196 203 209 213 213 206 198 196 198 202 202 202 201 198 197 199 202 207 210 210 210 207 205 210 211 208 206 207 208 212 211 210 213 211 211 218 216 208 208 207 201 201 201 199 197 197 197 197 195 195 196 197 199
265 243 238 264 217 188 192 215 201 241 279 287 294 290 293 284 286 341 338 255 215 193 191 202 202 198 202 201 197 201 199 192 198 206 201 199 206 208 210 213 206 200 200 200 201 201 198 198 199 198 199 200 204 208 208 208 208 208 210 212 209 206 206 210 212 211 213 214 211 211 213 210 208 209 206 204 204 204 202 201 201 201 198 194 191 190 192 194
243 242 245 266 224 199 230 256 235 236 257 272 284 279 275 259 269 331 16 101 125 150 171 187 196 198 207 203 195 203 205 195 192 193 194 202 209 208 208 207 202 203 206 201 199 196 192 192 195 194 197 200 204 209 209 204 204 206 208 209 209 209 211 212 213 214 214 212 214 218 211 202 204 207 206 207 207 206 207 205 204 204 202 199 196 191 190 191
233 236 229 238 242 226 259 285 285 257 241 216 245 260 245 227 270 312 331 161 118 126 162 172 169 184 202 200 187 192 199 193 189 188 190 199 206 208 209 204 200 207 209 203 201 193 187 189 191 190 196 201 203 208 208 203 202 205 207 208 207 209 210 211 215 216 212 211 218 220 209 201 203 205 205 206 206 206 207 206 205 205 202 201 200 195 191 190
235 235 223 215 222 218 248 294 295 298 182 180 208 232 201 149 264 294 267 236 208 173 176 182 135 147 178 185 183 189 192 182 183 192 194 196 201 207 212 207 204 208 208 205 204 194 186 190 194 192 197 200 202 206 204 201 202 205 208 209 208 209 209 211 217 217 213 216 219 213 207 206 206 205 205 206 205 204 204 203 203 204 204 203 202 200 198 197
239 234 236 228 217 216 227 253 257 77 74 154 211 223 191 176 152 238 268 233 220 237 186 180 226 163 159 169 177 188 191 180 182 195 194 194 199 200 202 206 208 210 207 204 205 199 191 192 195 192 191 196 201 204 202 199 199 203 208 210 209 208 207 208 213 215 214 217 214 204 203 208 209 205 203 203 203 204 204 206 205 204 206 207 205 203 201 201
233 223 234 241 235 236 238 237 209 135 44 319 156 167 196 172 137 120 0 179 208 244 205 169 167 135 143 151 156 176 186 180 182 195 194 192 199 199 198 202 206 209 207 203 207 204 196 196 199 192 187 194 201 201 201 199 197 199 206 211 211 208 206 207 207 207 209 211 208 201 200 207 210 206 202 201 201 202 204 207 207 204 203 204 204 204 203 202
231 223 227 223 231 246 246 234 201 156 271 282 180 178 210 218 190 142 39 21 174 193 190 177 168 151 149 150 151 175 188 183 187 202 201 196 198 198 201 205 203 205 206 203 205 205 198 197 199 191 186 195 201 200 203 199 195 199 207 213 217 213 208 209 211 210 208 204 202 201 204 208 209 204 201 200 200 200 202 204 205 202 198 197 199 201 201 201
237 232 232 217 220 236 233 232 235 195 225 255 203 189 210 221 211 168 97 22 59 114 157 178 179 173 165 162 175 193 192 188 195 205 199 191 187 186 192 200 199 200 205 204 203 203 199 196 195 190 189 197 204 203 201 196 196 207 214 215 216 213 209 211 216 216 210 204 204 209 211 209 206 202 202 202 201 199 200 201 202 200 195 193 195 197 198 200